WZZ1892 LBSF-LICA

Flight info

Callsign WZZ1892
Flight time 1h 8m
Altitude 38000
Route NAPET T214 SIN DCT ORRIH DCT GOKEL/N0436F370 DCT GEMVI DCT CRN L869 KOGEB
Aircraft A320/M-SDE1E2E3FGIJ1J4RWXY/LB1

Departure

Time 2026-04-21 16:44
Airport Sofia Airport (LBSF)

Arrival

Time 2026-04-21 17:52
Airport Lamezia Terme Sant'Eufemia International Airport (LICA)
Time Latitude Longitude Altitude Speed Heading
2026-04-21 16:18 42.69018 23.40588 1753 ft 0 kts 196°
2026-04-21 16:34 42.69017 23.40588 1753 ft 1 kts 196°
2026-04-21 16:35 42.68998 23.40580 1749 ft 4 kts 195°
2026-04-21 16:35 42.68972 23.40595 1749 ft 4 kts 123°
2026-04-21 16:35 42.68953 23.40672 1750 ft 13 kts 109°
2026-04-21 16:35 42.68927 23.40780 1745 ft 11 kts 107°
2026-04-21 16:36 42.68912 23.40877 1753 ft 10 kts 89°
2026-04-21 16:36 42.68927 23.40962 1750 ft 9 kts 72°
2026-04-21 16:36 42.68944 23.41035 1750 ft 8 kts 72°
2026-04-21 16:36 42.68959 23.41100 1750 ft 7 kts 71°
2026-04-21 16:37 42.68985 23.41183 1744 ft 11 kts 54°
2026-04-21 16:37 42.69046 23.41228 1751 ft 11 kts 353°
2026-04-21 16:37 42.69123 23.41197 1750 ft 12 kts 342°
2026-04-21 16:37 42.69201 23.41162 1751 ft 12 kts 343°
2026-04-21 16:38 42.69286 23.41169 1750 ft 13 kts 11°
2026-04-21 16:38 42.69374 23.41193 1753 ft 13 kts 11°
2026-04-21 16:38 42.69466 23.41223 1748 ft 14 kts 30°
2026-04-21 16:38 42.69483 23.41339 1746 ft 13 kts 95°
2026-04-21 16:39 42.69474 23.41478 1750 ft 16 kts 95°
2026-04-21 16:39 42.69466 23.41631 1753 ft 17 kts 94°
2026-04-21 16:39 42.69457 23.41791 1753 ft 18 kts 95°
2026-04-21 16:39 42.69445 23.41962 1749 ft 18 kts 95°
2026-04-21 16:40 42.69435 23.42139 1748 ft 19 kts 94°
2026-04-21 16:40 42.69426 23.42322 1753 ft 20 kts 94°
2026-04-21 16:40 42.69414 23.42510 1753 ft 20 kts 95°
2026-04-21 16:40 42.69402 23.42703 1753 ft 21 kts 94°
2026-04-21 16:41 42.69395 23.42837 1753 ft 22 kts 95°
2026-04-21 16:41 42.69378 23.43117 1749 ft 23 kts 94°
2026-04-21 16:41 42.69364 23.43336 1753 ft 24 kts 95°
2026-04-21 16:41 42.69351 23.43564 1753 ft 25 kts 94°
2026-04-21 16:42 42.69336 23.43799 1748 ft 26 kts 95°
2026-04-21 16:42 42.69336 23.43896 1746 ft 12 kts 76°
2026-04-21 16:42 42.69427 23.43950 1752 ft 13 kts
2026-04-21 16:42 42.69514 23.43919 1746 ft 15 kts 304°
2026-04-21 16:43 42.69522 23.43873 1749 ft 1 kts 274°
2026-04-21 16:43 42.69535 23.43657 1749 ft 56 kts 275°
2026-04-21 16:43 42.69584 23.42829 1749 ft 116 kts 274°
2026-04-21 16:43 42.69659 23.41512 1758 ft 161 kts 274°
2026-04-21 16:44 42.69751 23.39901 2166 ft 175 kts 275°
2026-04-21 16:44 42.70031 23.38263 2768 ft 185 kts 301°
2026-04-21 16:44 42.70852 23.36918 3466 ft 189 kts 311°
2026-04-21 16:44 42.71703 23.35516 4046 ft 195 kts 308°
2026-04-21 16:45 42.72554 23.34038 4619 ft 201 kts 308°
2026-04-21 16:45 42.73146 23.33001 4988 ft 209 kts 308°
2026-04-21 16:45 42.74053 23.31410 5538 ft 223 kts 307°
2026-04-21 16:45 42.75038 23.29680 6127 ft 239 kts 307°
2026-04-21 16:46 42.76357 23.27119 6864 ft 257 kts 293°
2026-04-21 16:46 42.76693 23.25530 7238 ft 261 kts 277°
2026-04-21 16:46 42.76760 23.23052 7796 ft 263 kts 272°
2026-04-21 16:46 42.76787 23.20548 8354 ft 264 kts 271°
2026-04-21 16:47 42.76813 23.18077 8917 ft 266 kts 271°
2026-04-21 16:47 42.76844 23.15551 9501 ft 267 kts 271°
2026-04-21 16:47 42.76845 23.13006 10036 ft 269 kts 265°
2026-04-21 16:47 42.76171 23.10635 10470 ft 277 kts 234°
2026-04-21 16:48 42.74596 23.09104 10925 ft 289 kts 201°
2026-04-21 16:48 42.72568 23.08493 11373 ft 306 kts 193°
2026-04-21 16:48 42.70409 23.08065 11841 ft 320 kts 191°
2026-04-21 16:48 42.68183 23.07698 12303 ft 332 kts 190°
2026-04-21 16:49 42.65839 23.07329 12777 ft 345 kts 189°
2026-04-21 16:49 42.63421 23.06939 13255 ft 355 kts 190°
2026-04-21 16:49 42.60927 23.06514 13751 ft 364 kts 190°
2026-04-21 16:49 42.58373 23.06057 14190 ft 374 kts 191°
2026-04-21 16:50 42.55762 23.05575 14629 ft 382 kts 191°
2026-04-21 16:50 42.53141 23.05084 15062 ft 389 kts 191°
2026-04-21 16:50 42.50433 23.04570 15518 ft 396 kts 191°
2026-04-21 16:50 42.47703 23.04051 15968 ft 402 kts 191°
2026-04-21 16:51 42.44885 23.03521 16427 ft 408 kts 192°
2026-04-21 16:51 42.42055 23.02991 16902 ft 413 kts 192°
2026-04-21 16:51 42.39181 23.02457 17384 ft 418 kts 192°
2026-04-21 16:51 42.36278 23.01912 17861 ft 422 kts 193°
2026-04-21 16:52 42.33465 23.00981 18331 ft 421 kts 203°
2026-04-21 16:52 42.30770 22.99394 18759 ft 420 kts 213°
2026-04-21 16:52 42.28336 22.97225 19190 ft 419 kts 223°
2026-04-21 16:52 42.26214 22.94532 19631 ft 417 kts 232°
2026-04-21 16:53 42.24483 22.91448 20073 ft 416 kts 241°
2026-04-21 16:53 42.22916 22.88137 20519 ft 419 kts 241°
2026-04-21 16:53 42.21339 22.84821 20969 ft 421 kts 241°
2026-04-21 16:53 42.19749 22.81489 21437 ft 422 kts 241°
2026-04-21 16:54 42.18173 22.78197 21906 ft 423 kts 241°
2026-04-21 16:54 42.16572 22.74864 22380 ft 424 kts 241°
2026-04-21 16:54 42.14966 22.71519 22871 ft 424 kts 241°
2026-04-21 16:54 42.13354 22.68172 23364 ft 425 kts 241°
2026-04-21 16:55 42.11737 22.64823 23815 ft 426 kts 241°
2026-04-21 16:55 42.10133 22.61495 24002 ft 432 kts 241°
2026-04-21 16:55 42.08477 22.58049 24022 ft 442 kts 241°
2026-04-21 16:55 42.06782 22.54513 24108 ft 449 kts 241°
2026-04-21 16:56 42.05108 22.51035 24542 ft 447 kts 241°
2026-04-21 16:56 42.03410 22.47521 24943 ft 447 kts 241°
2026-04-21 16:56 42.01700 22.43995 25357 ft 447 kts 241°
2026-04-21 16:56 41.99994 22.40489 25768 ft 447 kts 241°
2026-04-21 16:57 41.98313 22.37035 26178 ft 447 kts 241°
2026-04-21 16:57 41.96629 22.33525 26604 ft 446 kts 242°
2026-04-21 16:57 41.94983 22.29975 27045 ft 446 kts 243°
2026-04-21 16:57 41.93362 22.26408 27489 ft 445 kts 243°
2026-04-21 16:58 41.91770 22.22879 27936 ft 445 kts 243°
2026-04-21 16:58 41.90155 22.19308 28398 ft 445 kts 243°
2026-04-21 16:58 41.88537 22.15765 28869 ft 445 kts 243°
2026-04-21 16:58 41.88013 22.14624 29014 ft 444 kts 243°
2026-04-21 16:59 41.87167 22.12802 29260 ft 443 kts 243°
2026-04-21 16:59 41.85569 22.09270 29741 ft 443 kts 243°
2026-04-21 16:59 41.83950 22.05740 30200 ft 443 kts 243°
2026-04-21 17:00 41.82339 22.02266 30610 ft 443 kts 243°
2026-04-21 17:00 41.80707 21.98764 31031 ft 442 kts 243°
2026-04-21 17:00 41.79624 21.96445 31313 ft 441 kts 243°
2026-04-21 17:00 41.77445 21.91779 31902 ft 440 kts 243°
2026-04-21 17:01 41.75845 21.88354 32368 ft 438 kts 243°
2026-04-21 17:01 41.74236 21.84903 32838 ft 436 kts 243°
2026-04-21 17:01 41.72633 21.81458 33323 ft 434 kts 244°
2026-04-21 17:01 41.71038 21.78032 33817 ft 432 kts 244°
2026-04-21 17:02 41.69445 21.74617 34270 ft 430 kts 244°
2026-04-21 17:02 41.67864 21.71227 34687 ft 428 kts 244°
2026-04-21 17:02 41.66291 21.67863 35134 ft 425 kts 243°
2026-04-21 17:02 41.64741 21.64555 35576 ft 422 kts 243°
2026-04-21 17:03 41.63184 21.61241 36026 ft 418 kts 243°
2026-04-21 17:03 41.61644 21.57964 36474 ft 414 kts 243°
2026-04-21 17:03 41.60117 21.54719 36942 ft 409 kts 243°
2026-04-21 17:03 41.58610 21.51517 37422 ft 404 kts 243°
2026-04-21 17:04 41.57122 21.48361 37877 ft 400 kts 243°
2026-04-21 17:04 41.55635 21.45201 37997 ft 404 kts 243°
2026-04-21 17:04 41.54126 21.41988 38003 ft 410 kts 243°
2026-04-21 17:05 41.51060 21.35479 37993 ft 422 kts 243°
2026-04-21 17:05 41.47870 21.28744 37982 ft 433 kts 242°
2026-04-21 17:06 41.44622 21.21919 37976 ft 436 kts 242°
2026-04-21 17:06 41.41382 21.15129 37968 ft 437 kts 242°
2026-04-21 17:07 41.38119 21.08286 37964 ft 437 kts 242°
2026-04-21 17:07 41.34871 21.01478 37963 ft 437 kts 242°
2026-04-21 17:08 41.31599 20.94649 37968 ft 438 kts 242°
2026-04-21 17:08 41.28313 20.87821 37980 ft 437 kts 242°
2026-04-21 17:09 41.23397 20.77601 37988 ft 437 kts 242°
2026-04-21 17:09 41.20136 20.70844 37987 ft 437 kts 242°
2026-04-21 17:10 41.16843 20.64047 37988 ft 437 kts 242°
2026-04-21 17:10 41.13751 20.57134 37979 ft 431 kts 250°
2026-04-21 17:11 41.11339 20.49898 37976 ft 431 kts 250°
2026-04-21 17:11 41.08894 20.42591 37968 ft 431 kts 250°
2026-04-21 17:12 41.06472 20.35361 37965 ft 431 kts 250°
2026-04-21 17:12 41.04029 20.28097 37964 ft 431 kts 250°
2026-04-21 17:13 41.01583 20.20881 37967 ft 431 kts 250°
2026-04-21 17:13 40.99122 20.13622 37967 ft 431 kts 250°
2026-04-21 17:14 40.96705 20.06505 37962 ft 431 kts 250°
2026-04-21 17:14 40.94254 19.99273 37959 ft 430 kts 250°
2026-04-21 17:15 40.91793 19.92043 37956 ft 430 kts 250°
2026-04-21 17:15 40.89336 19.84877 37950 ft 430 kts 250°
2026-04-21 17:16 40.86861 19.77659 37877 ft 430 kts 250°
2026-04-21 17:16 40.85630 19.74061 37592 ft 429 kts 250°
2026-04-21 17:16 40.84399 19.70472 37315 ft 429 kts 250°
2026-04-21 17:17 40.83160 19.66877 37040 ft 429 kts 250°
2026-04-21 17:17 40.81932 19.63324 36898 ft 428 kts 250°
2026-04-21 17:17 40.79452 19.56155 36935 ft 429 kts 250°
2026-04-21 17:18 40.76971 19.49007 36938 ft 430 kts 249°
2026-04-21 17:18 40.74480 19.41829 36935 ft 429 kts 250°
2026-04-21 17:19 40.71995 19.34681 36937 ft 429 kts 249°
2026-04-21 17:19 40.69498 19.27520 36936 ft 429 kts 249°
2026-04-21 17:20 40.67015 19.20421 36938 ft 429 kts 249°
2026-04-21 17:20 40.64511 19.13272 36938 ft 429 kts 249°
2026-04-21 17:21 40.61985 19.06154 36933 ft 430 kts 246°
2026-04-21 17:21 40.58492 18.99746 36936 ft 440 kts 230°
2026-04-21 17:22 40.53547 18.94817 36936 ft 450 kts 217°
2026-04-21 17:22 40.48227 18.90450 36932 ft 450 kts 217°
2026-04-21 17:23 40.42944 18.86113 36931 ft 450 kts 217°
2026-04-21 17:23 40.37629 18.81750 36931 ft 450 kts 217°
2026-04-21 17:24 40.32314 18.77394 36932 ft 450 kts 217°
2026-04-21 17:24 40.27021 18.73072 36933 ft 450 kts 217°
2026-04-21 17:25 40.21695 18.68740 36932 ft 450 kts 217°
2026-04-21 17:25 40.16375 18.64411 36931 ft 450 kts 217°
2026-04-21 17:26 40.11076 18.60099 36929 ft 450 kts 217°
2026-04-21 17:26 40.05743 18.55773 36928 ft 450 kts 217°
2026-04-21 17:27 40.00429 18.51479 36929 ft 450 kts 217°
2026-04-21 17:27 39.95099 18.47176 36929 ft 450 kts 217°
2026-04-21 17:28 39.92430 18.45022 36491 ft 452 kts 217°
2026-04-21 17:28 39.89791 18.42900 36011 ft 450 kts 218°
2026-04-21 17:28 39.87133 18.40769 35503 ft 447 kts 218°
2026-04-21 17:28 39.84493 18.38652 35052 ft 445 kts 218°
2026-04-21 17:29 39.81858 18.36536 34613 ft 445 kts 218°
2026-04-21 17:29 39.79216 18.34414 34169 ft 445 kts 218°
2026-04-21 17:29 39.76575 18.32296 33710 ft 446 kts 218°
2026-04-21 17:29 39.73928 18.30173 33210 ft 447 kts 218°
2026-04-21 17:30 39.71270 18.28036 32719 ft 449 kts 218°
2026-04-21 17:30 39.68632 18.25921 32238 ft 450 kts 218°
2026-04-21 17:30 39.66291 18.24046 31831 ft 451 kts 217°
2026-04-21 17:30 39.63642 18.21929 31361 ft 453 kts 217°
2026-04-21 17:31 39.60954 18.19787 30910 ft 454 kts 217°
2026-04-21 17:31 39.58255 18.17640 30454 ft 456 kts 217°
2026-04-21 17:31 39.55548 18.15488 30020 ft 457 kts 217°
2026-04-21 17:31 39.52834 18.13328 29509 ft 458 kts 217°
2026-04-21 17:32 39.51023 18.11888 29165 ft 460 kts 217°
2026-04-21 17:32 39.47399 18.09008 28502 ft 462 kts 217°
2026-04-21 17:32 39.44646 18.06824 28005 ft 464 kts 217°
2026-04-21 17:32 39.41889 18.04638 27532 ft 465 kts 217°
2026-04-21 17:33 39.39124 18.02448 27052 ft 467 kts 216°
2026-04-21 17:33 39.36345 18.00253 26587 ft 469 kts 216°
2026-04-21 17:33 39.33556 17.98050 26135 ft 471 kts 216°
2026-04-21 17:33 39.30744 17.95828 25676 ft 472 kts 216°
2026-04-21 17:34 39.27927 17.93606 25224 ft 474 kts 216°
2026-04-21 17:34 39.25140 17.91407 24792 ft 476 kts 216°
2026-04-21 17:34 39.22308 17.89178 24364 ft 477 kts 216°
2026-04-21 17:34 39.19470 17.86951 23935 ft 475 kts 216°
2026-04-21 17:35 39.16697 17.84649 23541 ft 470 kts 221°
2026-04-21 17:35 39.14279 17.81876 23070 ft 462 kts 231°
2026-04-21 17:35 39.12314 17.78646 22585 ft 453 kts 241°
2026-04-21 17:35 39.10843 17.75111 22100 ft 445 kts 250°
2026-04-21 17:36 39.09859 17.71412 21628 ft 438 kts 258°
2026-04-21 17:36 39.09227 17.67574 21172 ft 435 kts 261°
2026-04-21 17:36 39.08620 17.63766 20709 ft 432 kts 261°
2026-04-21 17:36 39.08015 17.59991 20262 ft 429 kts 261°
2026-04-21 17:37 39.07414 17.56243 19823 ft 426 kts 261°
2026-04-21 17:37 39.06815 17.52518 19388 ft 424 kts 261°
2026-04-21 17:37 39.06419 17.50062 19097 ft 422 kts 261°
2026-04-21 17:37 39.05626 17.45175 18521 ft 418 kts 260°
2026-04-21 17:38 39.05032 17.41521 18090 ft 416 kts 260°
2026-04-21 17:38 39.04438 17.37876 17600 ft 413 kts 260°
2026-04-21 17:38 39.03851 17.34273 17120 ft 410 kts 260°
2026-04-21 17:38 39.03276 17.30732 16662 ft 407 kts 260°
2026-04-21 17:39 39.02699 17.27176 16197 ft 404 kts 260°
2026-04-21 17:39 39.02127 17.23650 15736 ft 402 kts 260°
2026-04-21 17:39 39.01556 17.20142 15277 ft 395 kts 260°
2026-04-21 17:39 39.00999 17.16739 14839 ft 383 kts 260°
2026-04-21 17:40 39.00449 17.13423 14430 ft 373 kts 260°
2026-04-21 17:40 38.99921 17.10244 14021 ft 363 kts 260°
2026-04-21 17:40 38.99221 17.07164 13623 ft 356 kts 251°
2026-04-21 17:40 38.98264 17.04251 13172 ft 348 kts 250°
2026-04-21 17:41 38.97321 17.01421 12727 ft 341 kts 250°
2026-04-21 17:41 38.96405 16.98680 12285 ft 334 kts 249°
2026-04-21 17:41 38.95493 16.95956 11862 ft 328 kts 249°
2026-04-21 17:41 38.94597 16.93278 11441 ft 323 kts 249°
2026-04-21 17:42 38.93726 16.90670 11033 ft 317 kts 249°
2026-04-21 17:42 38.92867 16.88104 10614 ft 302 kts 249°
2026-04-21 17:42 38.92068 16.85712 10222 ft 289 kts 249°
2026-04-21 17:42 38.91289 16.83376 9821 ft 278 kts 249°
2026-04-21 17:43 38.90538 16.81125 9390 ft 272 kts 249°
2026-04-21 17:43 38.89787 16.78881 9016 ft 273 kts 249°
2026-04-21 17:43 38.89040 16.76655 8520 ft 268 kts 249°
2026-04-21 17:43 38.88310 16.74484 8113 ft 261 kts 249°
2026-04-21 17:44 38.87838 16.73081 7837 ft 256 kts 249°
2026-04-21 17:44 38.87114 16.70934 7406 ft 251 kts 249°
2026-04-21 17:44 38.86565 16.68840 7000 ft 243 kts 264°
2026-04-21 17:44 38.86576 16.66697 6598 ft 238 kts 274°
2026-04-21 17:45 38.86674 16.64616 6181 ft 234 kts 274°
2026-04-21 17:45 38.86772 16.62548 5750 ft 229 kts 275°
2026-04-21 17:45 38.86869 16.60528 5327 ft 225 kts 275°
2026-04-21 17:45 38.86963 16.58538 4903 ft 221 kts 274°
2026-04-21 17:46 38.87054 16.56592 4585 ft 213 kts 272°
2026-04-21 17:46 38.87049 16.54751 4443 ft 202 kts 272°
2026-04-21 17:46 38.87164 16.52995 4207 ft 192 kts 278°
2026-04-21 17:46 38.87340 16.51354 3956 ft 185 kts 278°
2026-04-21 17:47 38.87527 16.49747 3711 ft 179 kts 279°
2026-04-21 17:47 38.87709 16.48204 3484 ft 171 kts 279°
2026-04-21 17:47 38.87886 16.46716 3262 ft 167 kts 278°
2026-04-21 17:47 38.88061 16.45247 3043 ft 164 kts 278°
2026-04-21 17:48 38.88174 16.44298 2893 ft 162 kts 278°
2026-04-21 17:48 38.88398 16.42408 2609 ft 160 kts 278°
2026-04-21 17:48 38.88561 16.41039 2397 ft 147 kts 277°
2026-04-21 17:48 38.88712 16.39762 2170 ft 143 kts 276°
2026-04-21 17:49 38.88861 16.38503 1968 ft 141 kts 276°
2026-04-21 17:49 38.89007 16.37266 1769 ft 142 kts 276°
2026-04-21 17:49 38.89154 16.36019 1571 ft 141 kts 276°
2026-04-21 17:49 38.89302 16.34761 1369 ft 142 kts 277°
2026-04-21 17:50 38.89451 16.33510 1212 ft 143 kts 276°
2026-04-21 17:50 38.89599 16.32252 1009 ft 143 kts 276°
2026-04-21 17:50 38.89742 16.31013 764 ft 138 kts 276°
2026-04-21 17:50 38.89901 16.29823 510 ft 138 kts 275°
2026-04-21 17:51 38.90027 16.28565 439 ft 134 kts 276°
2026-04-21 17:51 38.90167 16.27433 254 ft 131 kts 274°
2026-04-21 17:51 38.90255 16.26652 189 ft 134 kts 275°
2026-04-21 17:51 38.90422 16.25252 42 ft 125 kts 274°
2026-04-21 17:52 38.90522 16.24337 29 ft 91 kts 278°
2026-04-21 17:52 38.90592 16.23806 31 ft 38 kts 288°
2026-04-21 17:52 38.90699 16.23532 34 ft 17 kts 314°
2026-04-21 17:52 38.90810 16.23488 32 ft 18 kts 27°
2026-04-21 17:53 38.90831 16.23646 32 ft 20 kts 99°
2026-04-21 17:53 38.90808 16.23837 32 ft 23 kts 98°
2026-04-21 17:53 38.90792 16.23977 32 ft 25 kts 98°
2026-04-21 17:53 38.90779 16.24144 32 ft 15 kts 81°
2026-04-21 17:54 38.90827 16.24314 32 ft 17 kts 102°
2026-04-21 17:54 38.90813 16.24424 32 ft 19 kts 98°
2026-04-21 17:54 38.90792 16.24604 32 ft 22 kts 98°
2026-04-21 17:54 38.90780 16.24733 32 ft 7 kts 91°
2026-04-21 17:55 38.90822 16.24758 32 ft 4 kts
2026-04-21 17:55 38.90842 16.24772 32 ft 0 kts 46°